TimePDT,TemperatureF,Dew PointF,Humidity,Sea Level PressureIn,VisibilityMPH,Wind Direction,Wind SpeedMPH,Gust SpeedMPH,PrecipitationIn,Events,Conditions,WindDirDegrees,DateUTC
12:53 AM,79.0,44.1,29,29.75,10.0,WSW,6.9,-,N/A,,Clear,250,2012-10-03 07:53:00
1:53 AM,78.1,44.1,30,29.75,10.0,West,8.1,-,N/A,,Clear,260,2012-10-03 08:53:00
2:53 AM,77.0,43.0,30,29.75,10.0,West,5.8,-,N/A,,Clear,260,2012-10-03 09:53:00
3:53 AM,73.9,45.0,35,29.76,10.0,WSW,6.9,-,N/A,,Clear,250,2012-10-03 10:53:00
4:53 AM,75.0,43.0,32,29.77,10.0,SSW,3.5,-,N/A,,Clear,210,2012-10-03 11:53:00
5:53 AM,73.0,46.0,38,29.78,10.0,SSW,4.6,-,N/A,,Clear,200,2012-10-03 12:53:00
6:53 AM,71.1,46.9,42,29.80,10.0,South,4.6,-,N/A,,Clear,180,2012-10-03 13:53:00
7:53 AM,78.1,52.0,40,29.82,10.0,Calm,Calm,-,N/A,,Clear,0,2012-10-03 14:53:00
8:53 AM,86.0,48.9,28,29.84,10.0,SW,3.5,-,N/A,,Clear,220,2012-10-03 15:53:00
9:53 AM,93.9,41.0,16,29.85,10.0,WSW,4.6,-,N/A,,Clear,250,2012-10-03 16:53:00
10:53 AM,99.0,44.1,15,29.85,10.0,Calm,Calm,-,N/A,,Clear,0,2012-10-03 17:53:00
11:53 AM,102.9,37.0,10,29.83,10.0,WNW,6.9,-,N/A,,Clear,290,2012-10-03 18:53:00
12:53 PM,106.0,30.9,7,29.81,10.0,WSW,9.2,-,N/A,,Clear,250,2012-10-03 19:53:00
1:53 PM,107.1,33.1,8,29.79,10.0,WSW,18.4,23.0,N/A,,Clear,240,2012-10-03 20:53:00
2:53 PM,106.0,33.1,8,29.79,10.0,WSW,20.7,25.3,N/A,,Partly Cloudy,240,2012-10-03 21:53:00
3:53 PM,104.0,34.0,9,29.79,10.0,West,18.4,23.0,N/A,,Partly Cloudy,260,2012-10-03 22:53:00
4:53 PM,100.9,35.1,10,29.79,10.0,WSW,19.6,28.8,N/A,,Clear,250,2012-10-03 23:53:00
5:53 PM,95.0,39.0,14,29.80,10.0,West,11.5,-,N/A,,Clear,260,2012-10-04 00:53:00
6:53 PM,89.1,37.9,16,29.81,10.0,West,6.9,-,N/A,,Clear,280,2012-10-04 01:53:00
7:53 PM,89.1,42.1,19,29.83,10.0,WSW,15.0,-,N/A,,Clear,250,2012-10-04 02:53:00
8:53 PM,87.1,45.0,23,29.85,10.0,West,18.4,-,N/A,,Clear,260,2012-10-04 03:53:00
9:53 PM,84.0,46.9,27,29.87,10.0,West,11.5,-,N/A,,Clear,280,2012-10-04 04:53:00
10:53 PM,84.0,46.0,26,29.88,10.0,West,12.7,-,N/A,,Clear,280,2012-10-04 05:53:00
11:53 PM,81.0,48.0,31,29.88,10.0,West,11.5,-,N/A,,Clear,270,2012-10-04 06:53:00